iso_date,epoch_date,Year,Hour,Min,DOY,POS_DOY,Lat,Lon,BP,Ts,Ta,has_bp,has_ts,has_ta,BuoyID,Buoy_Type,Buoy_Owner,Logistics,Hemisphere
2020-11-04T16:59:57Z,1604509197,2020,17,0,309.7083,309.625,84.2082,-157.2652,998.7,-6.7,-18.3,yes,yes,yes,300234066895280,unknown,unknown,unknown,North
2020-11-04T18:00:00Z,1604512800,2020,18,0,309.75,309.75,84.1938,-157.0994,997.7,-6.7,-18.2,yes,yes,yes,300234066895280,unknown,unknown,unknown,North
2020-11-04T19:00:02Z,1604516403,2020,19,0,309.7917,309.75,84.1938,-157.0994,996.7,-6.7,-18.0,yes,yes,yes,300234066895280,unknown,unknown,unknown,North
2020-11-04T19:59:57Z,1604519997,2020,20,0,309.8333,309.75,84.1938,-157.0994,995.6,-6.7,-17.6,yes,yes,yes,300234066895280,unknown,unknown,unknown,North
2020-11-04T21:00:00Z,1604523600,2020,21,0,309.875,309.875,84.1788,-156.919,994.9,-6.7,-17.4,yes,yes,yes,300234066895280,unknown,unknown,unknown,North
2020-11-04T22:00:02Z,1604527203,2020,22,0,309.9167,309.875,84.1788,-156.919,994.4,-6.7,-17.0,yes,yes,yes,300234066895280,unknown,unknown,unknown,North
2020-11-04T22:59:57Z,1604530797,2020,23,0,309.9583,309.875,84.1788,-156.919,993.4,-6.6,-16.3,yes,yes,yes,300234066895280,unknown,unknown,unknown,North
2020-11-05T00:00:00Z,1604534400,2020,0,0,310.0,310.0,84.163,-156.734,992.7,-6.6,-15.6,yes,yes,yes,300234066895280,unknown,unknown,unknown,North
2020-11-05T01:00:02Z,1604538003,2020,1,0,310.0417,310.0,84.163,-156.734,991.6,-6.6,-14.5,yes,yes,yes,300234066895280,unknown,unknown,unknown,North
2020-11-05T01:59:57Z,1604541597,2020,2,0,310.0833,310.0,84.163,-156.734,990.3,-6.6,-13.5,yes,yes,yes,300234066895280,unknown,unknown,unknown,North
2020-11-05T03:00:00Z,1604545200,2020,3,0,310.125,310.125,84.1474,-156.5758,989.8,-6.5,-12.2,yes,yes,yes,300234066895280,unknown,unknown,unknown,North
2020-11-05T04:00:02Z,1604548803,2020,4,0,310.1667,310.125,84.1474,-156.5758,988.6,-6.5,-10.8,yes,yes,yes,300234066895280,unknown,unknown,unknown,North
2020-11-05T04:59:57Z,1604552397,2020,5,0,310.2083,310.125,84.1474,-156.5758,987.4,-6.5,-9.1,yes,yes,yes,300234066895280,unknown,unknown,unknown,North
2020-11-05T06:00:00Z,1604556000,2020,6,0,310.25,310.25,84.1288,-156.4634,986.7,-6.4,-7.7,yes,yes,yes,300234066895280,unknown,unknown,unknown,North
2020-11-05T07:00:02Z,1604559603,2020,7,0,310.2917,310.25,84.1288,-156.4634,986.0,-6.4,-6.4,yes,yes,yes,300234066895280,unknown,unknown,unknown,North
2020-11-05T07:59:57Z,1604563197,2020,8,0,310.3333,310.25,84.1288,-156.4634,985.6,-6.3,-5.6,yes,yes,yes,300234066895280,unknown,unknown,unknown,North
2020-11-05T09:00:00Z,1604566800,2020,9,0,310.375,310.375,84.1054,-156.4318,985.5,-6.2,-4.8,yes,yes,yes,300234066895280,unknown,unknown,unknown,North
2020-11-05T10:00:02Z,1604570403,2020,10,0,310.4167,310.375,84.1054,-156.4318,986.5,-6.2,-6.5,yes,yes,yes,300234066895280,unknown,unknown,unknown,North
2020-11-05T10:59:57Z,1604573997,2020,11,0,310.4583,310.375,84.1054,-156.4318,987.5,-6.1,-9.7,yes,yes,yes,300234066895280,unknown,unknown,unknown,North
2020-11-05T12:00:00Z,1604577600,2020,12,0,310.5,310.5,84.0852,-156.5752,988.1,-6.1,-12.7,yes,yes,yes,300234066895280,unknown,unknown,unknown,North
2020-11-05T13:00:02Z,1604581203,2020,13,0,310.5417,310.5,84.0852,-156.5752,988.7,-6.0,-12.4,yes,yes,yes,300234066895280,unknown,unknown,unknown,North
2020-11-05T13:59:57Z,1604584797,2020,14,0,310.5833,310.5,84.0852,-156.5752,989.4,-6.0,-13.1,yes,yes,yes,300234066895280,unknown,unknown,unknown,North
2020-11-05T15:00:00Z,1604588400,2020,15,0,310.625,310.625,84.0708,-156.7344,989.9,-5.9,-14.0,yes,yes,yes,300234066895280,unknown,unknown,unknown,North
2020-11-05T16:00:02Z,1604592003,2020,16,0,310.6667,310.625,84.0708,-156.7344,990.6,-5.9,-14.4,yes,yes,yes,300234066895280,unknown,unknown,unknown,North
2020-11-05T16:59:57Z,1604595597,2020,17,0,310.7083,310.625,84.0708,-156.7344,991.1,-5.8,-14.8,yes,yes,yes,300234066895280,unknown,unknown,unknown,North
2020-11-05T18:00:00Z,1604599200,2020,18,0,310.75,310.75,84.0544,-156.8822,991.7,-5.8,-15.1,yes,yes,yes,300234066895280,unknown,unknown,unknown,North
2020-11-05T19:00:02Z,1604602803,2020,19,0,310.7917,310.75,84.0544,-156.8822,992.6,-5.8,-15.5,yes,yes,yes,300234066895280,unknown,unknown,unknown,North
2020-11-05T19:59:57Z,1604606397,2020,20,0,310.8333,310.75,84.0544,-156.8822,993.8,-5.8,-16.3,yes,yes,yes,300234066895280,unknown,unknown,unknown,North
2020-11-05T21:00:00Z,1604610000,2020,21,0,310.875,310.875,84.0366,-157.0546,994.6,-5.7,-18.0,yes,yes,yes,300234066895280,unknown,unknown,unknown,North
2020-11-05T22:00:02Z,1604613603,2020,22,0,310.9167,310.875,84.0366,-157.0546,995.3,-5.7,-18.4,yes,yes,yes,300234066895280,unknown,unknown,unknown,North
2020-11-05T22:59:57Z,1604617197,2020,23,0,310.9583,310.875,84.0366,-157.0546,995.9,-5.7,-18.7,yes,yes,yes,300234066895280,unknown,unknown,unknown,North
2020-11-06T00:00:00Z,1604620800,2020,0,0,311.0,311.0,84.0244,-157.2196,996.3,-5.7,-19.0,yes,yes,yes,300234066895280,unknown,unknown,unknown,North
2020-11-06T01:00:02Z,1604624403,2020,1,0,311.0417,311.0,84.0244,-157.2196,996.7,-5.7,-19.3,yes,yes,yes,300234066895280,unknown,unknown,unknown,North
2020-11-06T01:59:57Z,1604627997,2020,2,0,311.0833,311.0,84.0244,-157.2196,997.4,-5.7,-19.6,yes,yes,yes,300234066895280,unknown,unknown,unknown,North
2020-11-06T03:00:00Z,1604631600,2020,3,0,311.125,311.125,84.0168,-157.3376,998.0,-5.7,-19.9,yes,yes,yes,300234066895280,unknown,unknown,unknown,North
2020-11-06T04:00:02Z,1604635203,2020,4,0,311.1667,311.125,84.0168,-157.3376,998.5,-5.7,-20.3,yes,yes,yes,300234066895280,unknown,unknown,unknown,North
2020-11-06T04:59:57Z,1604638797,2020,5,0,311.2083,311.125,84.0168,-157.3376,999.1,-5.7,-20.5,yes,yes,yes,300234066895280,unknown,unknown,unknown,North
2020-11-06T06:00:00Z,1604642400,2020,6,0,311.25,311.25,84.0074,-157.4352,999.8,-5.7,-20.7,yes,yes,yes,300234066895280,unknown,unknown,unknown,North
2020-11-06T07:00:02Z,1604646003,2020,7,0,311.2917,311.25,84.0074,-157.4352,1000.3,-5.7,-20.8,yes,yes,yes,300234066895280,unknown,unknown,unknown,North
2020-11-06T07:59:57Z,1604649597,2020,8,0,311.3333,311.25,84.0074,-157.4352,1001.0,-5.7,-21.0,yes,yes,yes,300234066895280,unknown,unknown,unknown,North
2020-11-06T09:00:00Z,1604653200,2020,9,0,311.375,311.375,83.998,-157.5506,1001.9,-5.7,-21.2,yes,yes,yes,300234066895280,unknown,unknown,unknown,North
2020-11-06T10:00:02Z,1604656803,2020,10,0,311.4167,311.375,83.998,-157.5506,1002.3,-5.7,-21.3,yes,yes,yes,300234066895280,unknown,unknown,unknown,North
2020-11-06T10:59:57Z,1604660397,2020,11,0,311.4583,311.375,83.998,-157.5506,1002.9,-5.7,-21.5,yes,yes,yes,300234066895280,unknown,unknown,unknown,North
2020-11-06T12:00:00Z,1604664000,2020,12,0,311.5,311.5,83.9932,-157.6598,1003.3,-5.7,-21.6,yes,yes,yes,300234066895280,unknown,unknown,unknown,North
2020-11-06T13:00:02Z,1604667603,2020,13,0,311.5417,311.5,83.9932,-157.6598,1004.4,-5.8,-21.8,yes,yes,yes,300234066895280,unknown,unknown,unknown,North
2020-11-06T13:59:57Z,1604671197,2020,14,0,311.5833,311.5,83.9932,-157.6598,1004.9,-5.8,-21.9,yes,yes,yes,300234066895280,unknown,unknown,unknown,North
2020-11-06T15:00:00Z,1604674800,2020,15,0,311.625,311.625,83.9906,-157.7378,1005.4,-5.8,-22.0,yes,yes,yes,300234066895280,unknown,unknown,unknown,North
2020-11-06T16:00:02Z,1604678403,2020,16,0,311.6667,311.625,83.9906,-157.7378,1006.0,-5.8,-22.1,yes,yes,yes,300234066895280,unknown,unknown,unknown,North
2020-11-06T16:59:57Z,1604681997,2020,17,0,311.7083,311.625,83.9906,-157.7378,1006.7,-5.8,-22.2,yes,yes,yes,300234066895280,unknown,unknown,unknown,North
2020-11-06T18:00:00Z,1604685600,2020,18,0,311.75,311.75,83.9868,-157.8048,1007.3,-5.8,-22.3,yes,yes,yes,300234066895280,unknown,unknown,unknown,North
2020-11-06T19:00:02Z,1604689203,2020,19,0,311.7917,311.75,83.9868,-157.8048,1007.9,-5.8,-22.4,yes,yes,yes,300234066895280,unknown,unknown,unknown,North
2020-11-06T19:59:57Z,1604692797,2020,20,0,311.8333,311.75,83.9868,-157.8048,1008.7,-5.9,-22.5,yes,yes,yes,300234066895280,unknown,unknown,unknown,North
2020-11-06T21:00:00Z,1604696400,2020,21,0,311.875,311.875,83.9824,-157.8752,1009.2,-5.9,-22.4,yes,yes,yes,300234066895280,unknown,unknown,unknown,North
2020-11-06T22:00:02Z,1604700003,2020,22,0,311.9167,311.875,83.9824,-157.8752,1009.7,-5.9,-22.5,yes,yes,yes,300234066895280,unknown,unknown,unknown,North
2020-11-06T22:59:57Z,1604703597,2020,23,0,311.9583,311.875,83.9824,-157.8752,1010.1,-5.9,-22.6,yes,yes,yes,300234066895280,unknown,unknown,unknown,North
2020-11-07T00:00:00Z,1604707200,2020,0,0,312.0,312.0,83.9812,-157.9256,1010.6,-5.9,-22.4,yes,yes,yes,300234066895280,unknown,unknown,unknown,North
2020-11-07T01:00:02Z,1604710803,2020,1,0,312.0417,312.0,83.9812,-157.9256,1010.8,-5.9,-22.3,yes,yes,yes,300234066895280,unknown,unknown,unknown,North
2020-11-07T01:59:57Z,1604714397,2020,2,0,312.0833,312.0,83.9812,-157.9256,1011.0,-6.0,-22.6,yes,yes,yes,300234066895280,unknown,unknown,unknown,North
2020-11-07T03:00:00Z,1604718000,2020,3,0,312.125,312.125,83.9808,-157.9304,1011.2,-6.0,-22.4,yes,yes,yes,300234066895280,unknown,unknown,unknown,North
2020-11-07T04:00:02Z,1604721603,2020,4,0,312.1667,312.125,83.9808,-157.9304,1011.2,-6.0,-22.0,yes,yes,yes,300234066895280,unknown,unknown,unknown,North
2020-11-07T04:59:57Z,1604725197,2020,5,0,312.2083,312.125,83.9808,-157.9304,1011.4,-6.0,-20.2,yes,yes,yes,300234066895280,unknown,unknown,unknown,North
2020-11-07T06:00:00Z,1604728800,2020,6,0,312.25,312.25,83.9774,-157.912,1011.4,-6.0,-20.2,yes,yes,yes,300234066895280,unknown,unknown,unknown,North
2020-11-07T07:00:02Z,1604732403,2020,7,0,312.2917,312.25,83.9774,-157.912,1011.4,-6.0,-21.0,yes,yes,yes,300234066895280,unknown,unknown,unknown,North
2020-11-07T07:59:57Z,1604735997,2020,8,0,312.3333,312.25,83.9774,-157.912,1011.3,-6.0,-19.7,yes,yes,yes,300234066895280,unknown,unknown,unknown,North
2020-11-07T09:00:00Z,1604739600,2020,9,0,312.375,312.375,83.9746,-157.8888,1011.0,-6.0,-18.8,yes,yes,yes,300234066895280,unknown,unknown,unknown,North
2020-11-07T10:00:02Z,1604743203,2020,10,0,312.4167,312.375,83.9746,-157.8888,1010.4,-6.0,-18.5,yes,yes,yes,300234066895280,unknown,unknown,unknown,North
2020-11-07T10:59:57Z,1604746797,2020,11,0,312.4583,312.375,83.9746,-157.8888,1009.9,-6.0,-18.0,yes,yes,yes,300234066895280,unknown,unknown,unknown,North
2020-11-07T12:00:00Z,1604750400,2020,12,0,312.5,312.5,83.9804,-157.7948,1009.3,-6.0,-17.3,yes,yes,yes,300234066895280,unknown,unknown,unknown,North
2020-11-07T13:00:02Z,1604754003,2020,13,0,312.5417,312.5,83.9804,-157.7948,1007.9,-6.0,-17.0,yes,yes,yes,300234066895280,unknown,unknown,unknown,North
2020-11-07T13:59:57Z,1604757597,2020,14,0,312.5833,312.5,83.9804,-157.7948,1007.9,-6.0,-16.6,yes,yes,yes,300234066895280,unknown,unknown,unknown,North
2020-11-07T15:00:00Z,1604761200,2020,15,0,312.625,312.625,83.9892,-157.6318,1007.5,-6.0,-16.3,yes,yes,yes,300234066895280,unknown,unknown,unknown,North
2020-11-07T16:00:02Z,1604764803,2020,16,0,312.6667,312.625,83.9892,-157.6318,1006.8,-6.0,-15.8,yes,yes,yes,300234066895280,unknown,unknown,unknown,North
2020-11-07T16:59:57Z,1604768397,2020,17,0,312.7083,312.625,83.9892,-157.6318,1006.6,-6.0,-15.5,yes,yes,yes,300234066895280,unknown,unknown,unknown,North
2020-11-07T18:00:00Z,1604772000,2020,18,0,312.75,312.75,83.997,-157.5308,1006.5,-5.9,-15.2,yes,yes,yes,300234066895280,unknown,unknown,unknown,North
2020-11-07T19:00:02Z,1604775603,2020,19,0,312.7917,312.75,83.997,-157.5308,1006.9,-5.9,-15.1,yes,yes,yes,300234066895280,unknown,unknown,unknown,North
2020-11-07T19:59:57Z,1604779197,2020,20,0,312.8333,312.75,83.997,-157.5308,1007.5,-5.9,-14.9,yes,yes,yes,300234066895280,unknown,unknown,unknown,North
2020-11-07T21:00:00Z,1604782800,2020,21,0,312.875,312.875,84.0114,-157.523,1008.3,-5.9,-15.0,yes,yes,yes,300234066895280,unknown,unknown,unknown,North
2020-11-07T22:00:02Z,1604786403,2020,22,0,312.9167,312.875,84.0114,-157.523,1009.2,-5.9,-15.0,yes,yes,yes,300234066895280,unknown,unknown,unknown,North
2020-11-07T22:59:57Z,1604789997,2020,23,0,312.9583,312.875,84.0114,-157.523,1010.0,-5.8,-13.8,yes,yes,yes,300234066895280,unknown,unknown,unknown,North
2020-11-08T00:00:00Z,1604793600,2020,0,0,313.0,313.0,84.0302,-157.5242,1010.6,-5.8,-13.1,yes,yes,yes,300234066895280,unknown,unknown,unknown,North
2020-11-08T01:00:02Z,1604797203,2020,1,0,313.0417,313.0,84.0302,-157.5242,1011.4,-5.8,-12.7,yes,yes,yes,300234066895280,unknown,unknown,unknown,North
2020-11-08T01:59:57Z,1604800797,2020,2,0,313.0833,313.0,84.0302,-157.5242,1012.0,-5.8,-12.5,yes,yes,yes,300234066895280,unknown,unknown,unknown,North
2020-11-08T03:00:00Z,1604804400,2020,3,0,313.125,313.125,84.04,-157.5122,1012.8,-5.7,-12.5,yes,yes,yes,300234066895280,unknown,unknown,unknown,North
2020-11-08T04:00:02Z,1604808003,2020,4,0,313.1667,313.125,84.04,-157.5122,1013.5,-5.7,-12.4,yes,yes,yes,300234066895280,unknown,unknown,unknown,North
2020-11-08T04:59:57Z,1604811597,2020,5,0,313.2083,313.125,84.04,-157.5122,1014.0,-5.7,-12.4,yes,yes,yes,300234066895280,unknown,unknown,unknown,North
2020-11-08T06:00:00Z,1604815200,2020,6,0,313.25,313.25,84.045,-157.502,1014.5,-5.6,-12.3,yes,yes,yes,300234066895280,unknown,unknown,unknown,North
2020-11-08T07:00:02Z,1604818803,2020,7,0,313.2917,313.25,84.045,-157.502,1015.4,-5.6,-12.3,yes,yes,yes,300234066895280,unknown,unknown,unknown,North
2020-11-08T07:59:57Z,1604822397,2020,8,0,313.3333,313.25,84.045,-157.502,1015.5,-5.6,-12.2,yes,yes,yes,300234066895280,unknown,unknown,unknown,North
2020-11-08T09:00:00Z,1604826000,2020,9,0,313.375,313.375,84.0476,-157.498,1015.9,-5.6,-12.1,yes,yes,yes,300234066895280,unknown,unknown,unknown,North
2020-11-08T10:00:02Z,1604829603,2020,10,0,313.4167,313.375,84.0476,-157.498,1016.0,-5.5,-12.0,yes,yes,yes,300234066895280,unknown,unknown,unknown,North
2020-11-08T10:59:57Z,1604833197,2020,11,0,313.4583,313.375,84.0476,-157.498,1016.1,-5.5,-11.9,yes,yes,yes,300234066895280,unknown,unknown,unknown,North
2020-11-08T12:00:00Z,1604836800,2020,12,0,313.5,313.5,84.0508,-157.4478,1016.1,-5.5,-11.8,yes,yes,yes,300234066895280,unknown,unknown,unknown,North
2020-11-08T13:00:02Z,1604840403,2020,13,0,313.5417,313.5,84.0508,-157.4478,1015.8,-5.5,-11.7,yes,yes,yes,300234066895280,unknown,unknown,unknown,North
2020-11-08T13:59:57Z,1604843997,2020,14,0,313.5833,313.5,84.0508,-157.4478,1015.6,-5.4,-11.5,yes,yes,yes,300234066895280,unknown,unknown,unknown,North
2020-11-08T15:00:00Z,1604847600,2020,15,0,313.625,313.625,84.0502,-157.355,1015.2,-5.4,-11.4,yes,yes,yes,300234066895280,unknown,unknown,unknown,North
2020-11-08T16:00:02Z,1604851203,2020,16,0,313.6667,313.625,84.0502,-157.355,1015.1,-5.4,-11.3,yes,yes,yes,300234066895280,unknown,unknown,unknown,North
2020-11-08T16:59:57Z,1604854797,2020,17,0,313.7083,313.625,84.0502,-157.355,1014.8,-5.3,-11.2,yes,yes,yes,300234066895280,unknown,unknown,unknown,North
2020-11-08T18:00:00Z,1604858400,2020,18,0,313.75,313.75,84.0456,-157.2606,1014.8,-5.3,-11.0,yes,yes,yes,300234066895280,unknown,unknown,unknown,North
2020-11-08T19:00:02Z,1604862003,2020,19,0,313.7917,313.75,84.0456,-157.2606,1014.4,-5.3,-10.8,yes,yes,yes,300234066895280,unknown,unknown,unknown,North
2020-11-08T19:59:57Z,1604865597,2020,20,0,313.8333,313.75,84.0456,-157.2606,1014.1,-5.3,-10.6,yes,yes,yes,300234066895280,unknown,unknown,unknown,North
2020-11-08T21:00:00Z,1604869200,2020,21,0,313.875,313.875,84.0394,-157.198,1014.1,-5.2,-10.3,yes,yes,yes,300234066895280,unknown,unknown,unknown,North
2020-11-08T22:00:02Z,1604872803,2020,22,0,313.9167,313.875,84.0394,-157.198,1014.1,-5.2,-10.0,yes,yes,yes,300234066895280,unknown,unknown,unknown,North
2020-11-08T22:59:57Z,1604876397,2020,23,0,313.9583,313.875,84.0394,-157.198,1014.1,-5.2,-9.8,yes,yes,yes,300234066895280,unknown,unknown,unknown,North
2020-11-09T00:00:00Z,1604880000,2020,0,0,314.0,314.0,84.0334,-157.172,1014.2,-5.2,-9.5,yes,yes,yes,300234066895280,unknown,unknown,unknown,North
2020-11-09T01:00:02Z,1604883603,2020,1,0,314.0417,314.0,84.0334,-157.172,1014.2,-5.1,-9.1,yes,yes,yes,300234066895280,unknown,unknown,unknown,North
2020-11-09T01:59:57Z,1604887197,2020,2,0,314.0833,314.0,84.0334,-157.172,1014.5,-5.1,-8.9,yes,yes,yes,300234066895280,unknown,unknown,unknown,North
2020-11-09T03:00:00Z,1604890800,2020,3,0,314.125,314.125,84.0242,-157.144,1014.7,-5.1,-8.7,yes,yes,yes,300234066895280,unknown,unknown,unknown,North
2020-11-09T04:00:02Z,1604894403,2020,4,0,314.1667,314.125,84.0242,-157.144,1015.1,-5.1,-8.5,yes,yes,yes,300234066895280,unknown,unknown,unknown,North
2020-11-09T04:59:57Z,1604897997,2020,5,0,314.2083,314.125,84.0242,-157.144,1015.2,-5.0,-8.3,yes,yes,yes,300234066895280,unknown,unknown,unknown,North
2020-11-09T06:00:00Z,1604901600,2020,6,0,314.25,314.25,84.011,-157.123,1015.3,-5.0,-8.2,yes,yes,yes,300234066895280,unknown,unknown,unknown,North
2020-11-09T07:00:02Z,1604905203,2020,7,0,314.2917,314.25,84.011,-157.123,1015.6,-5.0,-8.1,yes,yes,yes,300234066895280,unknown,unknown,unknown,North
2020-11-09T07:59:57Z,1604908797,2020,8,0,314.3333,314.25,84.011,-157.123,1015.9,-5.0,-8.0,yes,yes,yes,300234066895280,unknown,unknown,unknown,North
2020-11-09T09:00:00Z,1604912400,2020,9,0,314.375,314.375,83.999,-157.1348,1016.2,-5.0,-7.9,yes,yes,yes,300234066895280,unknown,unknown,unknown,North
2020-11-09T10:00:02Z,1604916003,2020,10,0,314.4167,314.375,83.999,-157.1348,1016.5,-4.9,-7.9,yes,yes,yes,300234066895280,unknown,unknown,unknown,North
2020-11-09T10:59:57Z,1604919597,2020,11,0,314.4583,314.375,83.999,-157.1348,1016.9,-4.9,-7.8,yes,yes,yes,300234066895280,unknown,unknown,unknown,North
2020-11-09T12:00:00Z,1604923200,2020,12,0,314.5,314.5,83.9908,-157.135,1016.9,-4.9,-7.8,yes,yes,yes,300234066895280,unknown,unknown,unknown,North
2020-11-09T13:00:02Z,1604926803,2020,13,0,314.5417,314.5,83.9908,-157.135,1017.0,-4.9,-7.7,yes,yes,yes,300234066895280,unknown,unknown,unknown,North
2020-11-09T13:59:57Z,1604930397,2020,14,0,314.5833,314.5,83.9908,-157.135,1017.5,-4.8,-7.7,yes,yes,yes,300234066895280,unknown,unknown,unknown,North
2020-11-09T15:00:00Z,1604934000,2020,15,0,314.625,314.625,83.9838,-157.1136,1017.8,-4.8,-7.7,yes,yes,yes,300234066895280,unknown,unknown,unknown,North
2020-11-09T16:00:02Z,1604937603,2020,16,0,314.6667,314.625,83.9838,-157.1136,1018.0,-4.8,-7.7,yes,yes,yes,300234066895280,unknown,unknown,unknown,North
2020-11-09T16:59:57Z,1604941197,2020,17,0,314.7083,314.625,83.9838,-157.1136,1018.3,-4.8,-7.7,yes,yes,yes,300234066895280,unknown,unknown,unknown,North
2020-11-09T18:00:00Z,1604944800,2020,18,0,314.75,314.75,83.975,-157.1026,1018.5,-4.8,-7.7,yes,yes,yes,300234066895280,unknown,unknown,unknown,North
2020-11-09T19:00:02Z,1604948403,2020,19,0,314.7917,314.75,83.975,-157.1026,1018.7,-4.7,-7.7,yes,yes,yes,300234066895280,unknown,unknown,unknown,North
2020-11-09T19:59:57Z,1604951997,2020,20,0,314.8333,314.75,83.975,-157.1026,1019.1,-4.7,-7.7,yes,yes,yes,300234066895280,unknown,unknown,unknown,North
2020-11-09T21:00:00Z,1604955600,2020,21,0,314.875,314.875,83.9676,-157.112,1019.3,-4.7,-7.8,yes,yes,yes,300234066895280,unknown,unknown,unknown,North
2020-11-09T22:00:02Z,1604959203,2020,22,0,314.9167,314.875,83.9676,-157.112,1019.7,-4.7,-7.7,yes,yes,yes,300234066895280,unknown,unknown,unknown,North
2020-11-09T22:59:57Z,1604962797,2020,23,0,314.9583,314.875,83.9676,-157.112,1020.1,-4.6,-7.7,yes,yes,yes,300234066895280,unknown,unknown,unknown,North
2020-11-10T00:00:00Z,1604966400,2020,0,0,315.0,315.0,83.9632,-157.0994,1020.2,-4.6,-7.7,yes,yes,yes,300234066895280,unknown,unknown,unknown,North
2020-11-10T01:00:02Z,1604970003,2020,1,0,315.0417,315.0,83.9632,-157.0994,1020.1,-4.6,-7.8,yes,yes,yes,300234066895280,unknown,unknown,unknown,North
2020-11-10T01:59:57Z,1604973597,2020,2,0,315.0833,315.0,83.9632,-157.0994,1020.2,-4.6,-8.1,yes,yes,yes,300234066895280,unknown,unknown,unknown,North
2020-11-10T03:00:00Z,1604977200,2020,3,0,315.125,315.125,83.9586,-157.0526,1020.3,-4.6,-8.4,yes,yes,yes,300234066895280,unknown,unknown,unknown,North
2020-11-10T04:00:02Z,1604980803,2020,4,0,315.1667,315.125,83.9586,-157.0526,1020.5,-4.5,-8.7,yes,yes,yes,300234066895280,unknown,unknown,unknown,North
2020-11-10T04:59:57Z,1604984397,2020,5,0,315.2083,315.125,83.9586,-157.0526,1020.6,-4.5,-9.0,yes,yes,yes,300234066895280,unknown,unknown,unknown,North
2020-11-10T06:00:00Z,1604988000,2020,6,0,315.25,315.25,83.9524,-157.0174,1020.5,-4.5,-9.3,yes,yes,yes,300234066895280,unknown,unknown,unknown,North
2020-11-10T07:00:02Z,1604991603,2020,7,0,315.2917,315.25,83.9524,-157.0174,1020.5,-4.5,-9.5,yes,yes,yes,300234066895280,unknown,unknown,unknown,North
2020-11-10T07:59:57Z,1604995197,2020,8,0,315.3333,315.25,83.9524,-157.0174,1020.3,-4.5,-9.8,yes,yes,yes,300234066895280,unknown,unknown,unknown,North
2020-11-10T09:00:00Z,1604998800,2020,9,0,315.375,315.375,83.9478,-157.003,1020.2,-4.5,-10.0,yes,yes,yes,300234066895280,unknown,unknown,unknown,North
2020-11-10T10:00:02Z,1605002403,2020,10,0,315.4167,315.375,83.9478,-157.003,1020.3,-4.5,-10.2,yes,yes,yes,300234066895280,unknown,unknown,unknown,North
2020-11-10T10:59:57Z,1605005997,2020,11,0,315.4583,315.375,83.9478,-157.003,1020.1,-4.5,-10.3,yes,yes,yes,300234066895280,unknown,unknown,unknown,North
2020-11-10T12:00:00Z,1605009600,2020,12,0,315.5,315.5,83.946,-156.9836,1019.7,-4.4,-10.4,yes,yes,yes,300234066895280,unknown,unknown,unknown,North
2020-11-10T13:00:02Z,1605013203,2020,13,0,315.5417,315.5,83.946,-156.9836,1019.6,-4.4,-10.6,yes,yes,yes,300234066895280,unknown,unknown,unknown,North
2020-11-10T13:59:57Z,1605016797,2020,14,0,315.5833,315.5,83.946,-156.9836,1019.0,-4.4,-10.7,yes,yes,yes,300234066895280,unknown,unknown,unknown,North
2020-11-10T15:00:00Z,1605020400,2020,15,0,315.625,315.625,83.9432,-156.939,1018.8,-4.4,-10.7,yes,yes,yes,300234066895280,unknown,unknown,unknown,North
2020-11-10T16:00:02Z,1605024003,2020,16,0,315.6667,315.625,83.9432,-156.939,1018.6,-4.4,-10.8,yes,yes,yes,300234066895280,unknown,unknown,unknown,North
2020-11-10T16:59:57Z,1605027597,2020,17,0,315.7083,315.625,83.9432,-156.939,1018.5,-4.4,-10.9,yes,yes,yes,300234066895280,unknown,unknown,unknown,North
2020-11-10T18:00:00Z,1605031200,2020,18,0,315.75,315.75,83.937,-156.898,1018.1,-4.4,-11.0,yes,yes,yes,300234066895280,unknown,unknown,unknown,North
2020-11-10T19:00:02Z,1605034803,2020,19,0,315.7917,315.75,83.937,-156.898,1018.1,-4.4,-11.0,yes,yes,yes,300234066895280,unknown,unknown,unknown,North
2020-11-10T19:59:57Z,1605038397,2020,20,0,315.8333,315.75,83.937,-156.898,1017.7,-4.4,-11.0,yes,yes,yes,300234066895280,unknown,unknown,unknown,North
2020-11-10T21:00:00Z,1605042000,2020,21,0,315.875,315.875,83.9308,-156.8822,1017.5,-4.3,-11.0,yes,yes,yes,300234066895280,unknown,unknown,unknown,North
2020-11-10T22:00:02Z,1605045603,2020,22,0,315.9167,315.875,83.9308,-156.8822,1017.2,-4.3,-11.0,yes,yes,yes,300234066895280,unknown,unknown,unknown,North
2020-11-10T22:59:57Z,1605049197,2020,23,0,315.9583,315.875,83.9308,-156.8822,1017.0,-4.3,-11.0,yes,yes,yes,300234066895280,unknown,unknown,unknown,North
2020-11-11T00:00:00Z,1605052800,2020,0,0,316.0,316.0,83.9274,-156.8562,1016.4,-4.3,-10.8,yes,yes,yes,300234066895280,unknown,unknown,unknown,North
2020-11-11T01:00:02Z,1605056403,2020,1,0,316.0417,316.0,83.9274,-156.8562,1015.8,-4.3,-10.7,yes,yes,yes,300234066895280,unknown,unknown,unknown,North
2020-11-11T01:59:57Z,1605059997,2020,2,0,316.0833,316.0,83.9274,-156.8562,1015.4,-4.3,-10.7,yes,yes,yes,300234066895280,unknown,unknown,unknown,North
2020-11-11T03:00:00Z,1605063600,2020,3,0,316.125,316.125,83.9226,-156.7862,1014.4,-4.3,-10.7,yes,yes,yes,300234066895280,unknown,unknown,unknown,North
2020-11-11T04:00:02Z,1605067203,2020,4,0,316.1667,316.125,83.9226,-156.7862,1013.6,-4.3,-10.8,yes,yes,yes,300234066895280,unknown,unknown,unknown,North
2020-11-11T04:59:57Z,1605070797,2020,5,0,316.2083,316.125,83.9226,-156.7862,1012.8,-4.3,-10.8,yes,yes,yes,300234066895280,unknown,unknown,unknown,North
2020-11-11T06:00:00Z,1605074400,2020,6,0,316.25,316.25,83.913,-156.6996,1012.1,-4.3,-10.9,yes,yes,yes,300234066895280,unknown,unknown,unknown,North